Latest Weather Observations for Moruya Airport

IDN60901

Issued at 8:45 am EDT Wednesday 22 October 2014 (issued every 10 minutes, with the page automatically refreshed every 10 minutes)

About weather observations | Map of Canberra area stations | Latest observations for Canberra area | Other Formats
Station Details ID: 069148 Name: MORUYA AIRPORT AWS Lat: -35.90 Lon: 150.14 Height: 4.0 m
Data from the previous 72 hours. | See also: Recent months for locations in Aust Capital Territory
Date/Time
EDT
Tmp

°C
App
Tmp
°C
Dew
Point
°C
Rel
Hum
%
Delta-T

°C
Wind Press
QNH
hPa
Press
MSL
hPa
Rain
since
9 am
mm
Dir
 
Spd
km/h
Gust
km/h
Spd
kts
Gust
kts
22/08:30am 16.2 13.3 10.9 71 2.8 N 17 24 9 13 1025.6 1025.6 0.0
22/08:00am 15.0 12.8 10.8 76 2.2 N 13 17 7 9 1025.9 1025.9 0.0
22/07:30am 13.8 12.0 10.8 82 1.6 N 11 20 6 11 1026.0 1026.0 0.0
22/07:00am 12.5 10.8 11.2 92 0.7 NNW 11 15 6 8 1026.0 1026.0 0.0
22/06:30am 10.9 8.9 10.3 96 0.3 NNW 11 15 6 8 1026.1 1026.1 0.0
22/06:00am 10.7 9.3 9.5 92 0.6 NNW 7 11 4 6 1026.2 1026.2 0.0
22/05:30am 12.7 10.8 10.4 86 1.2 NNW 11 15 6 8 1026.2 1026.2 0.0
22/05:00am 13.2 11.3 10.6 84 1.3 NNW 11 15 6 8 1026.3 1026.3 0.0
22/04:30am 13.2 11.4 10.7 85 1.3 NNW 11 13 6 7 1026.4 1026.4 0.0
22/04:00am 12.9 11.6 11.1 89 0.9 NNW 9 11 5 6 1026.6 1026.6 0.0
22/03:30am 12.6 11.6 11.0 90 0.8 NNW 7 9 4 5 1027.1 1027.1 0.0
22/03:00am 12.7 11.8 10.8 88 1.0 NNW 6 7 3 4 1027.3 1027.3 0.0
22/02:30am 13.3 12.4 10.8 85 1.3 NNW 6 9 3 5 1027.9 1027.9 0.0
22/02:00am 13.7 12.6 10.7 82 1.6 NNW 7 11 4 6 1028.4 1028.4 0.0
22/01:30am 13.8 12.7 10.8 82 1.6 NNW 7 11 4 6 1028.8 1028.8 0.0
22/01:00am 14.1 13.0 10.5 79 1.9 NNW 7 11 4 6 1029.3 1029.3 0.0
22/12:30am 14.2 13.0 10.2 77 2.1 N 7 11 4 6 1029.6 1029.6 0.0
22/12:00am 14.2 13.0 10.4 78 2.0 NNW 7 11 4 6 1030.1 1030.1 0.0
 
Date/Time
EDT
Tmp

°C
App
Tmp
°C
Dew
Point
°C
Rel
Hum
%
Delta-T

°C
Wind Press
QNH
hPa
Press
MSL
hPa
Rain
since
9 am
mm
Dir
 
Spd
km/h
Gust
km/h
Spd
kts
Gust
kts
21/11:30pm 14.3 13.1 10.3 77 2.1 NNW 7 9 4 5 1030.4 1030.4 0.0
21/11:00pm 14.6 13.1 10.4 76 2.2 NNW 9 13 5 7 1030.6 1030.6 0.0
21/10:30pm 14.6 13.1 10.6 77 2.1 NNW 9 13 5 7 1030.7 1030.7 0.0
21/10:00pm 14.6 13.7 10.6 77 2.1 N 6 9 3 5 1030.7 1030.7 0.0
21/09:30pm 14.7 13.6 10.7 77 2.1 NNW 7 9 4 5 1030.8 1030.8 0.0
21/09:00pm 14.9 13.8 10.5 75 2.3 NNW 7 9 4 5 1030.7 1030.7 0.0
21/08:30pm 15.0 13.8 10.4 74 2.4 NNW 7 9 4 5 1030.6 1030.6 0.0
21/08:00pm 15.3 14.0 9.9 70 2.8 N 7 11 4 6 1030.3 1030.3 0.0
21/07:30pm 15.6 13.9 9.7 68 3.1 N 9 11 5 6 1030.0 1030.0 0.0
21/07:00pm 15.9 13.4 9.6 66 3.2 N 13 17 7 9 1029.8 1029.8 0.0
21/06:30pm 16.1 13.2 9.5 65 3.4 N 15 20 8 11 1029.8 1029.8 0.0
21/06:00pm 16.5 12.7 9.9 65 3.4 NNE 20 24 11 13 1029.7 1029.7 0.0
21/05:30pm 17.0 13.0 10.6 66 3.4 NNE 22 28 12 15 1029.6 1029.6 0.0
21/05:00pm 17.0 13.3 10.1 64 3.6 NNE 20 26 11 14 1029.8 1029.8 0.0
21/04:30pm 17.0 13.5 10.8 67 3.3 NE 20 28 11 15 1029.9 1029.9 0.0
21/04:00pm 17.2 14.0 11.2 68 3.2 NE 19 22 10 12 1030.0 1030.0 0.0
21/03:30pm 17.4 14.4 10.8 65 3.5 NE 17 22 9 12 1030.5 1030.5 0.0
21/03:00pm 17.4 14.0 10.5 64 3.7 NE 19 26 10 14 1030.9 1030.9 0.0
21/02:30pm 17.2 13.9 10.8 66 3.4 NE 19 22 10 12 1031.2 1031.2 0.0
21/02:00pm 17.2 13.9 10.8 66 3.4 NE 19 24 10 13 1031.6 1031.6 0.0
21/01:30pm 17.5 14.2 9.4 59 4.2 NE 17 22 9 12 1032.1 1032.1 0.0
21/01:00pm 17.6 15.1 9.8 60 4.1 ENE 13 17 7 9 1032.4 1032.4 0.0
21/12:30pm 16.9 15.1 9.6 62 3.8 ENE 9 13 5 7 1032.7 1032.7 0.0
21/12:00pm 17.2 15.0 9.4 60 4.0 ENE 11 13 6 7 1033.0 1033.0 0.0
21/11:30am 17.0 15.4 8.9 59 4.2 NNE 7 11 4 6 1033.2 1033.2 0.0
21/11:00am 16.0 14.1 9.0 63 3.6 NE 9 13 5 7 1033.5 1033.5 0.0
21/10:30am 16.0 16.1 10.3 69 3.0 CALM 0 6 0 3 1033.5 1033.5 0.0
21/10:00am 15.4 15.1 10.0 70 2.8 W 2 7 1 4 1033.6 1033.6 0.0
21/09:30am 14.7 13.7 11.1 79 1.9 W 7 11 4 6 1033.5 1033.5 0.0
21/09:00am 14.0 13.2 11.7 86 1.2 WNW 7 13 4 7 1033.3 1033.3 0.2
21/08:30am 13.4 12.5 11.5 88 1.0 S 7 13 4 7 1033.2 1033.2 0.2
21/08:00am 12.8 12.1 11.5 92 0.7 WNW 6 9 3 5 1032.9 1032.9 0.2
21/07:30am 12.2 11.4 11.6 96 0.3 W 7 11 4 6 1032.7 1032.7 0.2
21/07:00am 11.8 10.9 11.3 97 0.3 W 7 13 4 7 1032.4 1032.4 0.2
21/06:30am 11.6 11.6 11.3 98 0.2 W 2 9 1 5 1032.3 1032.3 0.2
21/06:00am 11.6 10.9 11.3 98 0.2 WSW 6 9 3 5 1032.1 1032.1 0.2
21/05:30am 11.5 10.2 11.2 98 0.2 W 9 13 5 7 1032.0 1032.0 0.2
21/05:00am 11.5 10.2 11.3 99 0.1 WSW 9 13 5 7 1032.0 1032.0 0.2
21/04:30am 11.5 10.6 11.2 98 0.2 W 7 9 4 5 1032.1 1032.1 0.2
21/04:00am 11.6 10.7 11.3 98 0.2 W 7 11 4 6 1032.3 1032.3 0.2
21/03:30am 11.6 10.7 11.3 98 0.2 W 7 11 4 6 1032.4 1032.4 0.2
21/03:00am 11.7 11.0 11.5 99 0.1 W 6 9 3 5 1032.6 1032.6 0.2
21/02:30am 11.7 10.8 11.4 98 0.2 W 7 11 4 6 1032.7 1032.7 0.2
21/02:00am 11.7 10.8 11.5 99 0.1 W 7 11 4 6 1032.8 1032.8 0.2
21/01:30am 11.8 10.9 11.5 98 0.2 WNW 7 9 4 5 1033.1 1033.1 0.2
21/01:00am 11.8 11.0 11.6 99 0.1 WNW 7 9 4 5 1033.3 1033.3 0.0
21/12:30am 11.9 11.3 11.7 99 0.1 WNW 6 9 3 5 1033.4 1033.4 0.0
21/12:00am 12.1 12.7 11.8 98 0.2 CALM 0 0 0 0 1033.6 1033.6 0.0
 
Date/Time
EDT
Tmp

°C
App
Tmp
°C
Dew
Point
°C
Rel
Hum
%
Delta-T

°C
Wind Press
QNH
hPa
Press
MSL
hPa
Rain
since
9 am
mm
Dir
 
Spd
km/h
Gust
km/h
Spd
kts
Gust
kts
20/11:30pm 12.3 12.9 11.8 97 0.3 CALM 0 0 0 0 1033.6 1033.6 0.0
20/11:00pm 12.8 11.9 11.4 91 0.7 NNW 7 9 4 5 1033.4 1033.4 0.0
20/10:30pm 13.4 11.8 10.2 81 1.7 NNW 9 15 5 8 1033.4 1033.4 0.0
20/10:00pm 13.7 13.3 9.7 77 2.0 SW 2 7 1 4 1033.5 1033.5 0.0
20/09:30pm 13.6 11.8 9.6 77 2.0 WSW 9 11 5 6 1033.4 1033.4 0.0
20/09:00pm 13.8 13.4 9.6 76 2.1 SW 2 6 1 3 1033.2 1033.2 0.0
20/08:30pm 14.2 12.0 9.4 73 2.5 SSW 11 19 6 10 1033.0 1033.0 0.0
20/08:00pm 14.6 11.9 9.0 69 2.8 SSW 13 17 7 9 1032.6 1032.6 0.0
20/07:30pm 14.9 13.0 9.1 68 3.0 SSE 9 15 5 8 1032.5 1032.5 0.0
20/07:00pm 14.9 13.4 9.1 68 2.9 SSE 7 13 4 7 1032.2 1032.2 0.0
20/06:30pm 15.1 13.7 9.0 67 3.1 SSW 6 9 3 5 1031.9 1031.9 0.0
20/06:00pm 15.3 13.3 8.8 65 3.3 SSW 9 13 5 7 1031.7 1031.7 0.0
20/05:30pm 15.4 13.1 8.9 65 3.3 SSE 11 17 6 9 1031.7 1031.7 0.0
20/05:00pm 15.3 12.6 9.0 66 3.2 SSE 13 17 7 9 1031.6 1031.6 0.0
20/04:30pm 14.9 12.5 10.1 73 2.5 SE 13 17 7 9 1031.5 1031.5 0.0
20/04:00pm 15.5 14.0 10.7 73 2.5 SE 9 13 5 7 1031.4 1031.4 0.0
20/03:30pm 15.9 12.2 10.0 68 3.1 SSE 20 26 11 14 1031.4 1031.4 0.0
20/03:00pm 15.4 13.1 10.6 73 2.5 ESE 13 19 7 10 1031.5 1031.5 0.0
20/02:30pm 15.8 13.4 9.9 68 3.1 SE 13 19 7 10 1031.6 1031.6 0.0
20/02:00pm 15.3 13.1 10.7 74 2.4 SSE 13 17 7 9 1031.8 1031.8 0.0
20/01:30pm 15.4 12.0 11.2 76 2.2 SSE 20 28 11 15 1032.0 1032.0 0.0
20/01:00pm 15.2 10.5 10.8 75 2.3 SSE 26 33 14 18 1031.9 1031.9 0.0
20/12:30pm 15.7 11.8 10.7 72 2.7 S 22 32 12 17 1031.9 1031.9 0.0
20/12:00pm 15.7 11.4 10.7 72 2.6 S 24 33 13 18 1032.0 1032.0 0.0
20/11:30am 15.5 11.1 10.5 72 2.6 SSE 24 33 13 18 1032.1 1032.1 0.0
20/11:00am 15.7 11.5 11.1 74 2.4 S 24 32 13 17 1031.9 1031.9 0.0
20/10:30am 15.6 10.7 9.9 69 3.0 S 26 41 14 22 1031.7 1031.7 0.0
20/10:00am 15.8 11.6 9.7 67 3.1 S 22 32 12 17 1031.4 1031.4 0.0
20/09:30am 15.4 10.1 8.4 63 3.5 S 26 37 14 20 1031.0 1031.0 0.0
20/09:00am 15.3 10.0 8.3 63 3.5 S 26 35 14 19 1030.4 1030.4 0.0
20/08:30am 15.2 9.8 8.0 62 3.6 S 26 37 14 20 1029.9 1029.9 0.0
20/08:00am 15.3 8.7 7.6 60 3.8 S 32 41 17 22 1029.2 1029.2 0.0
20/07:30am 15.4 9.0 8.4 63 3.5 S 32 44 17 24 1028.3 1028.3 0.0
20/07:00am 15.7 12.0 10.2 70 2.9 S 20 32 11 17 1027.7 1027.7 0.0
20/06:30am 15.8 15.5 13.3 85 1.4 SSE 7 13 4 7 1027.1 1027.1 0.0
20/06:00am 14.7 15.3 13.1 90 0.9 S 2 7 1 4 1026.4 1026.4 0.0
20/05:30am 15.0 14.8 12.9 87 1.2 SW 6 11 3 6 1025.3 1025.3 0.0
20/05:00am 15.5 14.7 13.0 85 1.4 SW 9 11 5 6 1024.6 1024.6 0.0
20/04:30am 16.2 14.3 12.9 81 1.8 S 15 20 8 11 1023.8 1023.8 0.0
20/04:00am 16.5 13.2 12.7 78 2.1 SSE 22 35 12 19 1023.1 1023.1 0.0
20/03:30am 16.7 14.0 12.8 78 2.2 SSE 19 28 10 15 1023.4 1023.4 0.0
20/03:00am 16.8 14.2 13.3 80 2.0 SSE 19 32 10 17 1022.9 1022.9 0.0
20/02:30am 17.3 16.7 15.6 90 1.0 SSE 13 19 7 10 1022.6 1022.6 0.0
20/02:00am 17.4 14.9 15.2 87 1.3 SSE 22 35 12 19 1021.9 1021.9 0.0
20/01:30am 18.4 16.0 17.4 94 0.6 SSE 26 35 14 19 1021.2 1021.2 0.0
20/01:00am 15.0 15.9 15.0 100 0.0 W 4 7 2 4 1020.1 1020.1 0.0
20/12:30am 16.0 16.3 16.0 100 0.0 NW 9 13 5 7 1020.2 1020.2 0.0
20/12:00am 15.3 17.0 15.3 100 0.0 CALM 0 0 0 0 1020.4 1020.4 0.0
 
Date/Time
EDT
Tmp

°C
App
Tmp
°C
Dew
Point
°C
Rel
Hum
%
Delta-T

°C
Wind Press
QNH
hPa
Press
MSL
hPa
Rain
since
9 am
mm
Dir
 
Spd
km/h
Gust
km/h
Spd
kts
Gust
kts
19/11:30pm 15.4 16.0 15.4 100 0.0 NW 6 9 3 5 1020.3 1020.3 0.0
19/11:00pm 16.1 17.0 16.1 100 0.0 N 6 9 3 5 1020.3 1020.3 0.0
19/10:30pm 17.3 18.5 17.3 100 0.0 S 7 15 4 8 1020.5 1020.5 0.0
19/10:00pm 15.9 17.1 15.9 100 0.0 W 4 11 2 6 1020.0 1020.0 0.0
19/09:53pm 16.0 16.7 16.0 100 0.0 W 7 13 4 7 1020.0 1020.0 0.0
19/09:30pm 15.8 17.7 15.8 100 0.0 CALM 0 0 0 0 1019.6 1019.6 0.0
19/09:25pm 15.8 17.7 15.8 100 0.0 CALM 0 0 0 0 1019.8 1019.8 0.0
19/09:00pm 15.9 17.9 15.9 100 0.0 CALM 0 0 0 0 1019.9 1019.9 0.0
19/08:30pm 16.7 18.9 16.5 99 0.1 CALM 0 0 0 0 1019.5 1019.5 0.0
19/08:00pm 17.2 19.3 16.2 94 0.6 CALM 0 4 0 2 1019.3 1019.3 0.0
19/07:30pm 18.4 20.6 16.6 89 1.1 CALM 0 0 0 0 1019.1 1019.1 0.0
19/07:00pm 19.6 21.2 16.8 84 1.7 N 4 9 2 5 1019.0 1019.0 0.0
19/06:30pm 20.5 20.5 17.3 82 2.0 NNE 13 15 7 8 1018.7 1018.7 0.0
19/06:00pm 20.1 20.4 17.1 83 1.8 NE 11 15 6 8 1018.6 1018.6 0.0
19/05:30pm 20.5 19.6 16.9 80 2.2 NNE 17 22 9 12 1018.5 1018.5 0.0
19/05:00pm 20.7 18.9 16.1 75 2.8 NE 20 28 11 15 1018.6 1018.6 0.0
19/04:30pm 21.6 19.7 15.7 69 3.5 NNE 20 28 11 15 1018.8 1018.8 0.0
19/04:00pm 21.8 19.8 15.6 68 3.7 NE 20 28 11 15 1019.0 1019.0 0.0
19/03:30pm 21.0 19.6 17.0 78 2.4 NE 20 24 11 13 1019.4 1019.4 0.0
19/03:00pm 22.3 20.7 17.4 74 3.0 NE 22 28 12 15 1019.7 1019.7 0.0
19/02:30pm 20.8 18.3 16.2 75 2.8 NE 24 30 13 16 1020.0 1020.0 0.0
19/02:00pm 20.7 18.6 16.1 75 2.8 NE 22 30 12 16 1020.4 1020.4 0.0
19/01:30pm 21.5 19.2 15.6 69 3.5 NE 22 32 12 17 1020.9 1020.9 0.0
19/01:00pm 20.6 18.6 15.6 73 3.0 NE 20 26 11 14 1021.4 1021.4 0.0
19/12:30pm 20.5 18.6 15.3 72 3.1 NE 19 22 10 12 1021.7 1021.7 0.0
19/12:00pm 19.4 17.8 14.9 75 2.6 NE 17 24 9 13 1022.2 1022.2 0.0
19/11:30am 19.3 17.8 15.2 77 2.4 ENE 17 20 9 11 1022.7 1022.7 0.0
19/11:00am 19.4 18.6 15.1 76 2.5 ENE 13 17 7 9 1023.0 1023.0 0.0
19/10:30am 17.9 17.4 13.8 77 2.3 ENE 9 13 5 7 1023.7 1023.7 0.0
19/10:00am 17.2 16.7 13.9 81 1.9 E 9 11 5 6 1024.0 1024.0 0.0
19/09:30am 16.3 15.5 12.8 80 1.9 ENE 9 11 5 6 1024.3 1024.3 0.0
19/09:00am 15.3 15.5 13.0 86 1.3 E 4 7 2 4 1024.5 1024.5 0.0

Latest Capital City Observations: Canberra | Sydney | Melbourne | Brisbane | Adelaide | Perth | Hobart | Darwin

Other Formats:

Comma delimited format used in spreadsheet applications
http://www.bom.gov.au/fwo/IDN60903/IDN60903.95937.axf

JavaScript Object Notation format (JSON) in row-major order
http://www.bom.gov.au/fwo/IDN60903/IDN60903.95937.json